Time,TemperatureF,DewpointF,PressureIn,WindDirection,WindDirectionDegrees,WindSpeedMPH,WindSpeedGustMPH,Humidity,HourlyPrecipIn,Conditions,Clouds,dailyrainin,SoftwareType,DateUTC
2013-08-17 00:00:00,66.7,49.1,-100.00,North,-999,-999.0,-999.0,53,-99.99,,---,-99.99,VWS V14.01,2013-08-17 07:00:00,
2013-08-17 00:05:00,66.7,49.1,-100.00,North,-999,-999.0,-999.0,53,-99.99,,---,-99.99,VWS V14.01,2013-08-17 07:05:00,
2013-08-17 00:10:00,66.7,49.1,-100.00,North,-999,-999.0,-999.0,53,-99.99,,---,-99.99,VWS V14.01,2013-08-17 07:10:00,
2013-08-17 00:15:00,66.6,49.4,-100.00,North,-999,-999.0,-999.0,54,-99.99,,---,-99.99,VWS V14.01,2013-08-17 07:15:00,
2013-08-17 00:20:00,66.6,49.4,-100.00,North,-999,-999.0,-999.0,54,-99.99,,---,-99.99,VWS V14.01,2013-08-17 07:20:00,
2013-08-17 00:25:00,66.4,49.2,-100.00,North,-999,-999.0,-999.0,54,-99.99,,---,-99.99,VWS V14.01,2013-08-17 07:25:00,
2013-08-17 00:30:00,66.4,49.2,-100.00,North,-999,-999.0,-999.0,54,-99.99,,---,-99.99,VWS V14.01,2013-08-17 07:30:00,
2013-08-17 00:35:00,66.4,49.2,-100.00,North,-999,-999.0,-999.0,54,-99.99,,---,-99.99,VWS V14.01,2013-08-17 07:35:00,
2013-08-17 00:40:00,66.2,49.1,-100.00,North,-999,-999.0,-999.0,54,-99.99,,---,-99.99,VWS V14.01,2013-08-17 07:40:00,
2013-08-17 00:45:00,66.2,49.1,-100.00,North,-999,-999.0,-999.0,54,-99.99,,---,-99.99,VWS V14.01,2013-08-17 07:45:00,
2013-08-17 00:50:00,66.2,49.6,-100.00,North,-999,-999.0,-999.0,55,-99.99,,---,-99.99,VWS V14.01,2013-08-17 07:50:00,
2013-08-17 00:55:00,66.0,49.4,-100.00,North,-999,-999.0,-999.0,55,-99.99,,---,-99.99,VWS V14.01,2013-08-17 07:55:00,
2013-08-17 01:00:00,66.0,49.4,-100.00,North,-999,-999.0,-999.0,55,-99.99,,---,-99.99,VWS V14.01,2013-08-17 08:00:00,
2013-08-17 01:11:00,65.8,49.2,-100.00,North,-999,-999.0,-999.0,55,-99.99,,---,-99.99,VWS V14.01,2013-08-17 08:11:00,
2013-08-17 01:16:00,65.8,49.2,-100.00,North,-999,-999.0,-999.0,55,-99.99,,---,-99.99,VWS V14.01,2013-08-17 08:16:00,
2013-08-17 01:21:00,65.7,49.6,-100.00,North,-999,-999.0,-999.0,56,-99.99,,---,-99.99,VWS V14.01,2013-08-17 08:21:00,
2013-08-17 01:26:00,65.7,49.6,-100.00,North,-999,-999.0,-999.0,56,-99.99,,---,-99.99,VWS V14.01,2013-08-17 08:26:00,
2013-08-17 01:31:00,65.5,49.4,-100.00,North,-999,-999.0,-999.0,56,-99.99,,---,-99.99,VWS V14.01,2013-08-17 08:31:00,
2013-08-17 01:36:00,65.5,49.4,-100.00,North,-999,-999.0,-999.0,56,-99.99,,---,-99.99,VWS V14.01,2013-08-17 08:36:00,
2013-08-17 01:41:00,65.5,49.4,-100.00,North,-999,-999.0,-999.0,56,-99.99,,---,-99.99,VWS V14.01,2013-08-17 08:41:00,
2013-08-17 01:46:00,65.5,49.4,-100.00,North,-999,-999.0,-999.0,56,-99.99,,---,-99.99,VWS V14.01,2013-08-17 08:46:00,
2013-08-17 01:51:00,65.5,49.4,-100.00,North,-999,-999.0,-999.0,56,-99.99,,---,-99.99,VWS V14.01,2013-08-17 08:51:00,
2013-08-17 01:56:00,65.5,49.4,-100.00,North,-999,-999.0,-999.0,56,-99.99,,---,-99.99,VWS V14.01,2013-08-17 08:56:00,
2013-08-17 02:01:00,65.5,49.4,-100.00,North,-999,-999.0,-999.0,56,-99.99,,---,-99.99,VWS V14.01,2013-08-17 09:01:00,
2013-08-17 02:11:00,65.5,49.4,-100.00,North,-999,-999.0,-999.0,56,-99.99,,---,-99.99,VWS V14.01,2013-08-17 09:11:00,
2013-08-17 02:16:00,65.3,49.2,-100.00,North,-999,-999.0,-999.0,56,-99.99,,---,-99.99,VWS V14.01,2013-08-17 09:16:00,
2013-08-17 02:21:00,65.3,49.2,-100.00,North,-999,-999.0,-999.0,56,-99.99,,---,-99.99,VWS V14.01,2013-08-17 09:21:00,
2013-08-17 02:26:00,65.1,49.0,-100.00,North,-999,-999.0,-999.0,56,-99.99,,---,-99.99,VWS V14.01,2013-08-17 09:26:00,
2013-08-17 02:31:00,65.1,49.0,-100.00,North,-999,-999.0,-999.0,56,-99.99,,---,-99.99,VWS V14.01,2013-08-17 09:31:00,
2013-08-17 02:36:00,65.1,49.5,-100.00,North,-999,-999.0,-999.0,57,-99.99,,---,-99.99,VWS V14.01,2013-08-17 09:36:00,
2013-08-17 02:41:00,65.1,49.5,-100.00,North,-999,-999.0,-999.0,57,-99.99,,---,-99.99,VWS V14.01,2013-08-17 09:41:00,
2013-08-17 02:46:00,64.9,49.4,-100.00,North,-999,-999.0,-999.0,57,-99.99,,---,-99.99,VWS V14.01,2013-08-17 09:46:00,
2013-08-17 02:51:00,64.9,49.4,-100.00,North,-999,-999.0,-999.0,57,-99.99,,---,-99.99,VWS V14.01,2013-08-17 09:51:00,
2013-08-17 02:56:00,64.9,49.4,-100.00,North,-999,-999.0,-999.0,57,-99.99,,---,-99.99,VWS V14.01,2013-08-17 09:56:00,
2013-08-17 03:01:00,64.9,49.4,-100.00,North,-999,-999.0,-999.0,57,-99.99,,---,-99.99,VWS V14.01,2013-08-17 10:01:00,
2013-08-17 03:11:00,64.9,49.8,-100.00,North,-999,-999.0,-999.0,58,-99.99,,---,-99.99,VWS V14.01,2013-08-17 10:11:00,
2013-08-17 03:16:00,64.9,49.8,-100.00,North,-999,-999.0,-999.0,58,-99.99,,---,-99.99,VWS V14.01,2013-08-17 10:16:00,
2013-08-17 03:21:00,64.8,49.7,-100.00,North,-999,-999.0,-999.0,58,-99.99,,---,-99.99,VWS V14.01,2013-08-17 10:21:00,
2013-08-17 03:26:00,64.8,49.7,-100.00,North,-999,-999.0,-999.0,58,-99.99,,---,-99.99,VWS V14.01,2013-08-17 10:26:00,
2013-08-17 03:31:00,64.8,49.7,-100.00,North,-999,-999.0,-999.0,58,-99.99,,---,-99.99,VWS V14.01,2013-08-17 10:31:00,
2013-08-17 03:36:00,64.6,49.0,-100.00,North,-999,-999.0,-999.0,57,-99.99,,---,-99.99,VWS V14.01,2013-08-17 10:36:00,
2013-08-17 03:41:00,64.4,48.8,-100.00,North,-999,-999.0,-999.0,57,-99.99,,---,-99.99,VWS V14.01,2013-08-17 10:41:00,
2013-08-17 03:46:00,64.4,49.3,-100.00,North,-999,-999.0,-999.0,58,-99.99,,---,-99.99,VWS V14.01,2013-08-17 10:46:00,
2013-08-17 03:51:00,64.6,49.5,-100.00,North,-999,-999.0,-999.0,58,-99.99,,---,-99.99,VWS V14.01,2013-08-17 10:51:00,
2013-08-17 03:56:00,64.6,49.5,-100.00,North,-999,-999.0,-999.0,58,-99.99,,---,-99.99,VWS V14.01,2013-08-17 10:56:00,
2013-08-17 04:01:00,64.6,49.5,-100.00,North,-999,-999.0,-999.0,58,-99.99,,---,-99.99,VWS V14.01,2013-08-17 11:01:00,
2013-08-17 04:06:00,64.6,49.5,-100.00,North,-999,-999.0,-999.0,58,-99.99,,---,-99.99,VWS V14.01,2013-08-17 11:06:00,
2013-08-17 04:11:00,64.4,49.3,-100.00,North,-999,-999.0,-999.0,58,-99.99,,---,-99.99,VWS V14.01,2013-08-17 11:11:00,
2013-08-17 04:16:00,64.4,49.3,-100.00,North,-999,-999.0,-999.0,58,-99.99,,---,-99.99,VWS V14.01,2013-08-17 11:16:00,
2013-08-17 04:21:00,64.4,49.3,-100.00,North,-999,-999.0,-999.0,58,-99.99,,---,-99.99,VWS V14.01,2013-08-17 11:21:00,
2013-08-17 04:26:00,64.2,49.2,-100.00,North,-999,-999.0,-999.0,58,-99.99,,---,-99.99,VWS V14.01,2013-08-17 11:26:00,
2013-08-17 04:31:00,64.4,49.3,-100.00,North,-999,-999.0,-999.0,58,-99.99,,---,-99.99,VWS V14.01,2013-08-17 11:31:00,
2013-08-17 04:36:00,64.4,49.3,-100.00,North,-999,-999.0,-999.0,58,-99.99,,---,-99.99,VWS V14.01,2013-08-17 11:36:00,
2013-08-17 04:41:00,64.4,49.8,-100.00,North,-999,-999.0,-999.0,59,-99.99,,---,-99.99,VWS V14.01,2013-08-17 11:41:00,
2013-08-17 04:46:00,64.4,49.8,-100.00,North,-999,-999.0,-999.0,59,-99.99,,---,-99.99,VWS V14.01,2013-08-17 11:46:00,
2013-08-17 04:51:00,64.2,49.6,-100.00,North,-999,-999.0,-999.0,59,-99.99,,---,-99.99,VWS V14.01,2013-08-17 11:51:00,
2013-08-17 04:56:00,64.4,49.8,-100.00,North,-999,-999.0,-999.0,59,-99.99,,---,-99.99,VWS V14.01,2013-08-17 11:56:00,
2013-08-17 05:01:00,64.4,49.8,-100.00,North,-999,-999.0,-999.0,59,-99.99,,---,-99.99,VWS V14.01,2013-08-17 12:01:00,
2013-08-17 05:06:00,64.4,49.8,-100.00,North,-999,-999.0,-999.0,59,-99.99,,---,-99.99,VWS V14.01,2013-08-17 12:06:00,
2013-08-17 05:11:00,64.4,50.2,-100.00,North,-999,-999.0,-999.0,60,-99.99,,---,-99.99,VWS V14.01,2013-08-17 12:11:00,
2013-08-17 05:16:00,64.2,50.1,-100.00,North,-999,-999.0,-999.0,60,-99.99,,---,-99.99,VWS V14.01,2013-08-17 12:16:00,
2013-08-17 05:21:00,64.2,50.1,-100.00,North,-999,-999.0,-999.0,60,-99.99,,---,-99.99,VWS V14.01,2013-08-17 12:21:00,
2013-08-17 05:27:00,64.2,50.5,-100.00,North,-999,-999.0,-999.0,61,-99.99,,---,-99.99,VWS V14.01,2013-08-17 12:27:00,
2013-08-17 05:33:00,64.2,50.5,-100.00,North,-999,-999.0,-999.0,61,-99.99,,---,-99.99,VWS V14.01,2013-08-17 12:33:00,
2013-08-17 05:39:00,64.0,50.3,-100.00,North,-999,-999.0,-999.0,61,-99.99,,---,-99.99,VWS V14.01,2013-08-17 12:39:00,
2013-08-17 05:44:00,64.0,50.8,-100.00,North,-999,-999.0,-999.0,62,-99.99,,---,-99.99,VWS V14.01,2013-08-17 12:44:00,
2013-08-17 05:49:00,63.9,50.6,-100.00,North,-999,-999.0,-999.0,62,-99.99,,---,-99.99,VWS V14.01,2013-08-17 12:49:00,
2013-08-17 05:55:00,63.9,50.6,-100.00,North,-999,-999.0,-999.0,62,-99.99,,---,-99.99,VWS V14.01,2013-08-17 12:55:00,
2013-08-17 06:01:00,63.9,50.6,-100.00,North,-999,-999.0,-999.0,62,-99.99,,---,-99.99,VWS V14.01,2013-08-17 13:01:00,
2013-08-17 06:06:00,63.9,50.6,-100.00,North,-999,-999.0,-999.0,62,-99.99,,---,-99.99,VWS V14.01,2013-08-17 13:06:00,
2013-08-17 06:11:00,63.9,50.6,-100.00,North,-999,-999.0,-999.0,62,-99.99,,---,-99.99,VWS V14.01,2013-08-17 13:11:00,
2013-08-17 06:16:00,63.9,50.6,-100.00,North,-999,-999.0,-999.0,62,-99.99,,---,-99.99,VWS V14.01,2013-08-17 13:16:00,
2013-08-17 06:21:00,64.0,50.8,-100.00,North,-999,-999.0,-999.0,62,-99.99,,---,-99.99,VWS V14.01,2013-08-17 13:21:00,
2013-08-17 06:26:00,63.9,50.6,-100.00,North,-999,-999.0,-999.0,62,-99.99,,---,-99.99,VWS V14.01,2013-08-17 13:26:00,
2013-08-17 06:31:00,63.9,50.6,-100.00,North,-999,-999.0,-999.0,62,-99.99,,---,-99.99,VWS V14.01,2013-08-17 13:31:00,
2013-08-17 06:36:00,63.7,50.4,-100.00,North,-999,-999.0,-999.0,62,-99.99,,---,-99.99,VWS V14.01,2013-08-17 13:36:00,
2013-08-17 06:41:00,63.7,50.4,-100.00,North,-999,-999.0,-999.0,62,-99.99,,---,-99.99,VWS V14.01,2013-08-17 13:41:00,
2013-08-17 06:46:00,63.7,50.4,-100.00,North,-999,-999.0,-999.0,62,-99.99,,---,-99.99,VWS V14.01,2013-08-17 13:46:00,
2013-08-17 06:51:00,63.7,50.4,-100.00,North,-999,-999.0,-999.0,62,-99.99,,---,-99.99,VWS V14.01,2013-08-17 13:51:00,
2013-08-17 06:56:00,63.7,50.4,-100.00,North,-999,-999.0,-999.0,62,-99.99,,---,-99.99,VWS V14.01,2013-08-17 13:56:00,
2013-08-17 07:01:00,63.7,50.4,-100.00,North,-999,-999.0,-999.0,62,-99.99,,---,-99.99,VWS V14.01,2013-08-17 14:01:00,
2013-08-17 07:06:00,63.7,50.4,-100.00,North,-999,-999.0,-999.0,62,-99.99,,---,-99.99,VWS V14.01,2013-08-17 14:06:00,
2013-08-17 07:12:00,63.7,50.4,-100.00,North,-999,-999.0,-999.0,62,-99.99,,---,-99.99,VWS V14.01,2013-08-17 14:12:00,
2013-08-17 07:17:00,63.7,50.4,-100.00,North,-999,-999.0,-999.0,62,-99.99,,---,-99.99,VWS V14.01,2013-08-17 14:17:00,
2013-08-17 07:22:00,63.7,50.4,-100.00,North,-999,-999.0,-999.0,62,-99.99,,---,-99.99,VWS V14.01,2013-08-17 14:22:00,
2013-08-17 07:27:00,63.7,50.4,-100.00,North,-999,-999.0,-999.0,62,-99.99,,---,-99.99,VWS V14.01,2013-08-17 14:27:00,
2013-08-17 07:32:00,63.7,50.4,-100.00,North,-999,-999.0,-999.0,62,-99.99,,---,-99.99,VWS V14.01,2013-08-17 14:32:00,
2013-08-17 07:37:00,63.7,50.4,-100.00,North,-999,-999.0,-999.0,62,-99.99,,---,-99.99,VWS V14.01,2013-08-17 14:37:00,
2013-08-17 07:42:00,63.7,50.4,-100.00,North,-999,-999.0,-999.0,62,-99.99,,---,-99.99,VWS V14.01,2013-08-17 14:42:00,
2013-08-17 07:47:00,63.7,50.4,-100.00,North,-999,-999.0,-999.0,62,-99.99,,---,-99.99,VWS V14.01,2013-08-17 14:47:00,
2013-08-17 07:52:00,64.9,51.6,-100.00,North,-999,-999.0,-999.0,62,-99.99,,---,-99.99,VWS V14.01,2013-08-17 14:52:00,
2013-08-17 07:57:00,65.1,51.8,-100.00,North,-999,-999.0,-999.0,62,-99.99,,---,-99.99,VWS V14.01,2013-08-17 14:57:00,
2013-08-17 08:02:00,65.3,52.0,-100.00,North,-999,-999.0,-999.0,62,-99.99,,---,-99.99,VWS V14.01,2013-08-17 15:02:00,
2013-08-17 08:07:00,65.8,52.5,-100.00,North,-999,-999.0,-999.0,62,-99.99,,---,-99.99,VWS V14.01,2013-08-17 15:07:00,
2013-08-17 08:12:00,66.6,52.7,-100.00,North,-999,-999.0,-999.0,61,-99.99,,---,-99.99,VWS V14.01,2013-08-17 15:12:00,
2013-08-17 08:17:00,67.5,53.6,-100.00,North,-999,-999.0,-999.0,61,-99.99,,---,-99.99,VWS V14.01,2013-08-17 15:17:00,
2013-08-17 08:22:00,67.8,53.9,-100.00,North,-999,-999.0,-999.0,61,-99.99,,---,-99.99,VWS V14.01,2013-08-17 15:22:00,
2013-08-17 08:27:00,68.4,54.0,-100.00,North,-999,-999.0,-999.0,60,-99.99,,---,-99.99,VWS V14.01,2013-08-17 15:27:00,
2013-08-17 08:32:00,68.5,54.1,-100.00,North,-999,-999.0,-999.0,60,-99.99,,---,-99.99,VWS V14.01,2013-08-17 15:32:00,
2013-08-17 08:37:00,68.4,53.5,-100.00,North,-999,-999.0,-999.0,59,-99.99,,---,-99.99,VWS V14.01,2013-08-17 15:37:00,
2013-08-17 08:42:00,68.4,53.5,-100.00,North,-999,-999.0,-999.0,59,-99.99,,---,-99.99,VWS V14.01,2013-08-17 15:42:00,
2013-08-17 08:47:00,68.2,53.3,-100.00,North,-999,-999.0,-999.0,59,-99.99,,---,-99.99,VWS V14.01,2013-08-17 15:47:00,
2013-08-17 08:52:00,68.0,53.2,-100.00,North,-999,-999.0,-999.0,59,-99.99,,---,-99.99,VWS V14.01,2013-08-17 15:52:00,
2013-08-17 08:57:00,68.0,53.2,-100.00,North,-999,-999.0,-999.0,59,-99.99,,---,-99.99,VWS V14.01,2013-08-17 15:57:00,
2013-08-17 09:02:00,68.0,53.2,-100.00,North,-999,-999.0,-999.0,59,-99.99,,---,-99.99,VWS V14.01,2013-08-17 16:02:00,
2013-08-17 09:21:00,68.9,53.5,-100.00,North,-999,-999.0,-999.0,58,-99.99,,---,-99.99,VWS V14.01,2013-08-17 16:21:00,
2013-08-17 09:26:00,68.9,53.5,-100.00,North,-999,-999.0,-999.0,58,-99.99,,---,-99.99,VWS V14.01,2013-08-17 16:26:00,
2013-08-17 09:31:00,68.9,53.5,-100.00,North,-999,-999.0,-999.0,58,-99.99,,---,-99.99,VWS V14.01,2013-08-17 16:31:00,
2013-08-17 09:36:00,68.7,53.4,-100.00,North,-999,-999.0,-999.0,58,-99.99,,---,-99.99,VWS V14.01,2013-08-17 16:36:00,
2013-08-17 09:41:00,68.7,53.4,-100.00,North,-999,-999.0,-999.0,58,-99.99,,---,-99.99,VWS V14.01,2013-08-17 16:41:00,
2013-08-17 09:46:00,68.5,53.2,-100.00,North,-999,-999.0,-999.0,58,-99.99,,---,-99.99,VWS V14.01,2013-08-17 16:46:00,
2013-08-17 09:51:00,68.5,53.2,-100.00,North,-999,-999.0,-999.0,58,-99.99,,---,-99.99,VWS V14.01,2013-08-17 16:51:00,
2013-08-17 09:56:00,68.4,53.0,-100.00,North,-999,-999.0,-999.0,58,-99.99,,---,-99.99,VWS V14.01,2013-08-17 16:56:00,
2013-08-17 10:01:00,68.4,53.0,-100.00,North,-999,-999.0,-999.0,58,-99.99,,---,-99.99,VWS V14.01,2013-08-17 17:01:00,
2013-08-17 10:06:00,68.4,53.0,-100.00,North,-999,-999.0,-999.0,58,-99.99,,---,-99.99,VWS V14.01,2013-08-17 17:06:00,
2013-08-17 10:11:00,69.8,54.4,-100.00,North,-999,-999.0,-999.0,58,-99.99,,---,-99.99,VWS V14.01,2013-08-17 17:11:00,
2013-08-17 10:16:00,70.0,54.5,-100.00,North,-999,-999.0,-999.0,58,-99.99,,---,-99.99,VWS V14.01,2013-08-17 17:16:00,
2013-08-17 10:21:00,70.0,54.5,-100.00,North,-999,-999.0,-999.0,58,-99.99,,---,-99.99,VWS V14.01,2013-08-17 17:21:00,
2013-08-17 10:26:00,70.0,54.5,-100.00,North,-999,-999.0,-999.0,58,-99.99,,---,-99.99,VWS V14.01,2013-08-17 17:26:00,
2013-08-17 10:31:00,70.0,54.5,-100.00,North,-999,-999.0,-999.0,58,-99.99,,---,-99.99,VWS V14.01,2013-08-17 17:31:00,
2013-08-17 10:36:00,70.0,54.5,-100.00,North,-999,-999.0,-999.0,58,-99.99,,---,-99.99,VWS V14.01,2013-08-17 17:36:00,
2013-08-17 10:41:00,70.0,54.5,-100.00,North,-999,-999.0,-999.0,58,-99.99,,---,-99.99,VWS V14.01,2013-08-17 17:41:00,
2013-08-17 10:46:00,71.2,55.7,-100.00,North,-999,-999.0,-999.0,58,-99.99,,---,-99.99,VWS V14.01,2013-08-17 17:46:00,
2013-08-17 10:51:00,72.7,57.1,-100.00,North,-999,-999.0,-999.0,58,-99.99,,---,-99.99,VWS V14.01,2013-08-17 17:51:00,
2013-08-17 10:56:00,72.7,57.1,-100.00,North,-999,-999.0,-999.0,58,-99.99,,---,-99.99,VWS V14.01,2013-08-17 17:56:00,
2013-08-17 11:01:00,73.8,57.1,-100.00,North,-999,-999.0,-999.0,56,-99.99,,---,-99.99,VWS V14.01,2013-08-17 18:01:00,
2013-08-17 11:06:00,73.8,57.1,-100.00,North,-999,-999.0,-999.0,56,-99.99,,---,-99.99,VWS V14.01,2013-08-17 18:06:00,
2013-08-17 11:11:00,73.8,57.1,-100.00,North,-999,-999.0,-999.0,56,-99.99,,---,-99.99,VWS V14.01,2013-08-17 18:11:00,
2013-08-17 11:16:00,73.8,57.1,-100.00,North,-999,-999.0,-999.0,56,-99.99,,---,-99.99,VWS V14.01,2013-08-17 18:16:00,
2013-08-17 11:21:00,73.8,57.1,-100.00,North,-999,-999.0,-999.0,56,-99.99,,---,-99.99,VWS V14.01,2013-08-17 18:21:00,
2013-08-17 11:26:00,73.8,57.1,-100.00,North,-999,-999.0,-999.0,56,-99.99,,---,-99.99,VWS V14.01,2013-08-17 18:26:00,
2013-08-17 11:31:00,76.3,58.4,-100.00,North,-999,-999.0,-999.0,54,-99.99,,---,-99.99,VWS V14.01,2013-08-17 18:31:00,
2013-08-17 11:36:00,76.3,58.4,-100.00,North,-999,-999.0,-999.0,54,-99.99,,---,-99.99,VWS V14.01,2013-08-17 18:36:00,
2013-08-17 11:41:00,76.3,58.4,-100.00,North,-999,-999.0,-999.0,54,-99.99,,---,-99.99,VWS V14.01,2013-08-17 18:41:00,
2013-08-17 11:46:00,76.3,58.4,-100.00,North,-999,-999.0,-999.0,54,-99.99,,---,-99.99,VWS V14.01,2013-08-17 18:46:00,
2013-08-17 11:51:00,76.3,58.4,-100.00,North,-999,-999.0,-999.0,54,-99.99,,---,-99.99,VWS V14.01,2013-08-17 18:51:00,
2013-08-17 11:56:00,78.1,59.0,-100.00,North,-999,-999.0,-999.0,52,-99.99,,---,-99.99,VWS V14.01,2013-08-17 18:56:00,
2013-08-17 12:01:00,78.1,59.0,-100.00,North,-999,-999.0,-999.0,52,-99.99,,---,-99.99,VWS V14.01,2013-08-17 19:01:00,
2013-08-17 12:06:00,78.1,59.0,-100.00,North,-999,-999.0,-999.0,52,-99.99,,---,-99.99,VWS V14.01,2013-08-17 19:06:00,
2013-08-17 12:11:00,78.1,59.0,-100.00,North,-999,-999.0,-999.0,52,-99.99,,---,-99.99,VWS V14.01,2013-08-17 19:11:00,
2013-08-17 12:16:00,78.1,59.0,-100.00,North,-999,-999.0,-999.0,52,-99.99,,---,-99.99,VWS V14.01,2013-08-17 19:16:00,
2013-08-17 12:21:00,78.1,59.0,-100.00,North,-999,-999.0,-999.0,52,-99.99,,---,-99.99,VWS V14.01,2013-08-17 19:21:00,
2013-08-17 12:26:00,78.1,59.0,-100.00,North,-999,-999.0,-999.0,52,-99.99,,---,-99.99,VWS V14.01,2013-08-17 19:26:00,
2013-08-17 12:31:00,78.1,59.0,-100.00,North,-999,-999.0,-999.0,52,-99.99,,---,-99.99,VWS V14.01,2013-08-17 19:31:00,
2013-08-17 12:36:00,78.1,59.0,-100.00,North,-999,-999.0,-999.0,52,-99.99,,---,-99.99,VWS V14.01,2013-08-17 19:36:00,
2013-08-17 12:41:00,78.1,59.0,-100.00,North,-999,-999.0,-999.0,52,-99.99,,---,-99.99,VWS V14.01,2013-08-17 19:41:00,
2013-08-17 12:46:00,78.1,59.0,-100.00,North,-999,-999.0,-999.0,52,-99.99,,---,-99.99,VWS V14.01,2013-08-17 19:46:00,
2013-08-17 12:51:00,78.1,59.0,-100.00,North,-999,-999.0,-999.0,52,-99.99,,---,-99.99,VWS V14.01,2013-08-17 19:51:00,
2013-08-17 12:56:00,78.1,59.0,-100.00,North,-999,-999.0,-999.0,52,-99.99,,---,-99.99,VWS V14.01,2013-08-17 19:56:00,
2013-08-17 13:01:00,78.1,59.0,-100.00,North,-999,-999.0,-999.0,52,-99.99,,---,-99.99,VWS V14.01,2013-08-17 20:01:00,
2013-08-17 13:06:00,78.1,59.0,-100.00,North,-999,-999.0,-999.0,52,-99.99,,---,-99.99,VWS V14.01,2013-08-17 20:06:00,
2013-08-17 13:11:00,78.1,59.0,-100.00,North,-999,-999.0,-999.0,52,-99.99,,---,-99.99,VWS V14.01,2013-08-17 20:11:00,
2013-08-17 13:16:00,78.1,59.0,-100.00,North,-999,-999.0,-999.0,52,-99.99,,---,-99.99,VWS V14.01,2013-08-17 20:16:00,
2013-08-17 13:21:00,78.1,59.0,-100.00,North,-999,-999.0,-999.0,52,-99.99,,---,-99.99,VWS V14.01,2013-08-17 20:21:00,
2013-08-17 13:26:00,78.1,59.0,-100.00,North,-999,-999.0,-999.0,52,-99.99,,---,-99.99,VWS V14.01,2013-08-17 20:26:00,
2013-08-17 13:31:00,78.1,59.0,-100.00,North,-999,-999.0,-999.0,52,-99.99,,---,-99.99,VWS V14.01,2013-08-17 20:31:00,
2013-08-17 13:36:00,78.1,59.0,-100.00,North,-999,-999.0,-999.0,52,-99.99,,---,-99.99,VWS V14.01,2013-08-17 20:36:00,
2013-08-17 13:41:00,83.3,58.5,-100.00,North,-999,-999.0,-999.0,43,-99.99,,---,-99.99,VWS V14.01,2013-08-17 20:41:00,
2013-08-17 13:46:00,83.3,58.5,-100.00,North,-999,-999.0,-999.0,43,-99.99,,---,-99.99,VWS V14.01,2013-08-17 20:46:00,
2013-08-17 13:51:00,83.3,58.5,-100.00,North,-999,-999.0,-999.0,43,-99.99,,---,-99.99,VWS V14.01,2013-08-17 20:51:00,
2013-08-17 13:56:00,83.3,58.5,-100.00,North,-999,-999.0,-999.0,43,-99.99,,---,-99.99,VWS V14.01,2013-08-17 20:56:00,
2013-08-17 14:01:00,81.5,56.9,-100.00,North,-999,-999.0,-999.0,43,-99.99,,---,-99.99,VWS V14.01,2013-08-17 21:01:00,
2013-08-17 14:06:00,81.1,56.5,-100.00,North,-999,-999.0,-999.0,43,-99.99,,---,-99.99,VWS V14.01,2013-08-17 21:06:00,
2013-08-17 14:11:00,80.6,56.1,-100.00,North,-999,-999.0,-999.0,43,-99.99,,---,-99.99,VWS V14.01,2013-08-17 21:11:00,
2013-08-17 14:16:00,80.1,56.2,-100.00,North,-999,-999.0,-999.0,44,-99.99,,---,-99.99,VWS V14.01,2013-08-17 21:16:00,
2013-08-17 14:21:00,79.7,55.9,-100.00,North,-999,-999.0,-999.0,44,-99.99,,---,-99.99,VWS V14.01,2013-08-17 21:21:00,
2013-08-17 14:26:00,79.3,55.6,-100.00,North,-999,-999.0,-999.0,44,-99.99,,---,-99.99,VWS V14.01,2013-08-17 21:26:00,
2013-08-17 14:31:00,78.8,55.1,-100.00,North,-999,-999.0,-999.0,44,-99.99,,---,-99.99,VWS V14.01,2013-08-17 21:31:00,
2013-08-17 14:36:00,78.4,54.7,-100.00,North,-999,-999.0,-999.0,44,-99.99,,---,-99.99,VWS V14.01,2013-08-17 21:36:00,
2013-08-17 14:41:00,78.1,54.4,-100.00,North,-999,-999.0,-999.0,44,-99.99,,---,-99.99,VWS V14.01,2013-08-17 21:41:00,
2013-08-17 14:47:00,77.9,54.3,-100.00,North,-999,-999.0,-999.0,44,-99.99,,---,-99.99,VWS V14.01,2013-08-17 21:47:00,
2013-08-17 14:52:00,77.7,54.1,-100.00,North,-999,-999.0,-999.0,44,-99.99,,---,-99.99,VWS V14.01,2013-08-17 21:52:00,
2013-08-17 14:57:00,77.7,54.1,-100.00,North,-999,-999.0,-999.0,44,-99.99,,---,-99.99,VWS V14.01,2013-08-17 21:57:00,
2013-08-17 15:02:00,77.5,53.9,-100.00,North,-999,-999.0,-999.0,44,-99.99,,---,-99.99,VWS V14.01,2013-08-17 22:02:00,
2013-08-17 15:13:00,77.4,53.8,-100.00,North,-999,-999.0,-999.0,44,-99.99,,---,-99.99,VWS V14.01,2013-08-17 22:13:00,
2013-08-17 15:18:00,77.4,53.8,-100.00,North,-999,-999.0,-999.0,44,-99.99,,---,-99.99,VWS V14.01,2013-08-17 22:18:00,
2013-08-17 15:23:00,77.2,53.6,-100.00,North,-999,-999.0,-999.0,44,-99.99,,---,-99.99,VWS V14.01,2013-08-17 22:23:00,
2013-08-17 15:28:00,77.4,53.8,-100.00,North,-999,-999.0,-999.0,44,-99.99,,---,-99.99,VWS V14.01,2013-08-17 22:28:00,
2013-08-17 15:33:00,77.7,54.1,-100.00,North,-999,-999.0,-999.0,44,-99.99,,---,-99.99,VWS V14.01,2013-08-17 22:33:00,
2013-08-17 15:38:00,77.9,54.3,-100.00,North,-999,-999.0,-999.0,44,-99.99,,---,-99.99,VWS V14.01,2013-08-17 22:38:00,
2013-08-17 15:43:00,77.9,54.3,-100.00,North,-999,-999.0,-999.0,44,-99.99,,---,-99.99,VWS V14.01,2013-08-17 22:43:00,
2013-08-17 15:48:00,78.1,54.4,-100.00,North,-999,-999.0,-999.0,44,-99.99,,---,-99.99,VWS V14.01,2013-08-17 22:48:00,
2013-08-17 15:53:00,78.1,54.4,-100.00,North,-999,-999.0,-999.0,44,-99.99,,---,-99.99,VWS V14.01,2013-08-17 22:53:00,
2013-08-17 15:58:00,78.1,54.4,-100.00,North,-999,-999.0,-999.0,44,-99.99,,---,-99.99,VWS V14.01,2013-08-17 22:58:00,
2013-08-17 16:03:00,78.3,54.6,-100.00,North,-999,-999.0,-999.0,44,-99.99,,---,-99.99,VWS V14.01,2013-08-17 23:03:00,
2013-08-17 16:08:00,78.3,54.6,-100.00,North,-999,-999.0,-999.0,44,-99.99,,---,-99.99,VWS V14.01,2013-08-17 23:08:00,
2013-08-17 16:13:00,78.3,54.6,-100.00,North,-999,-999.0,-999.0,44,-99.99,,---,-99.99,VWS V14.01,2013-08-17 23:13:00,
2013-08-17 16:18:00,78.4,54.7,-100.00,North,-999,-999.0,-999.0,44,-99.99,,---,-99.99,VWS V14.01,2013-08-17 23:18:00,
2013-08-17 16:23:00,78.6,55.5,-100.00,North,-999,-999.0,-999.0,45,-99.99,,---,-99.99,VWS V14.01,2013-08-17 23:23:00,
2013-08-17 16:28:00,79.0,55.2,-100.00,North,-999,-999.0,-999.0,44,-99.99,,---,-99.99,VWS V14.01,2013-08-17 23:28:00,
2013-08-17 16:33:00,79.0,55.2,-100.00,North,-999,-999.0,-999.0,44,-99.99,,---,-99.99,VWS V14.01,2013-08-17 23:33:00,
2013-08-17 16:38:00,79.2,55.4,-100.00,North,-999,-999.0,-999.0,44,-99.99,,---,-99.99,VWS V14.01,2013-08-17 23:38:00,
2013-08-17 16:43:00,79.3,55.6,-100.00,North,-999,-999.0,-999.0,44,-99.99,,---,-99.99,VWS V14.01,2013-08-17 23:43:00,
2013-08-17 16:48:00,79.7,55.9,-100.00,North,-999,-999.0,-999.0,44,-99.99,,---,-99.99,VWS V14.01,2013-08-17 23:48:00,
2013-08-17 16:53:00,80.1,56.2,-100.00,North,-999,-999.0,-999.0,44,-99.99,,---,-99.99,VWS V14.01,2013-08-17 23:53:00,
2013-08-17 16:58:00,80.4,56.5,-100.00,North,-999,-999.0,-999.0,44,-99.99,,---,-99.99,VWS V14.01,2013-08-17 23:58:00,
2013-08-17 17:03:00,80.6,56.7,-100.00,North,-999,-999.0,-999.0,44,-99.99,,---,-99.99,VWS V14.01,2013-08-18 00:03:00,
2013-08-17 17:08:00,80.8,56.9,-100.00,North,-999,-999.0,-999.0,44,-99.99,,---,-99.99,VWS V14.01,2013-08-18 00:08:00,
2013-08-17 17:13:00,80.8,56.2,-100.00,North,-999,-999.0,-999.0,43,-99.99,,---,-99.99,VWS V14.01,2013-08-18 00:13:00,
2013-08-17 17:18:00,80.8,56.9,-100.00,North,-999,-999.0,-999.0,44,-99.99,,---,-99.99,VWS V14.01,2013-08-18 00:18:00,
2013-08-17 17:23:00,81.0,57.0,-100.00,North,-999,-999.0,-999.0,44,-99.99,,---,-99.99,VWS V14.01,2013-08-18 00:23:00,
2013-08-17 17:28:00,81.1,56.5,-100.00,North,-999,-999.0,-999.0,43,-99.99,,---,-99.99,VWS V14.01,2013-08-18 00:28:00,
2013-08-17 17:33:00,81.1,57.2,-100.00,North,-999,-999.0,-999.0,44,-99.99,,---,-99.99,VWS V14.01,2013-08-18 00:33:00,
2013-08-17 17:38:00,81.1,56.5,-100.00,North,-999,-999.0,-999.0,43,-99.99,,---,-99.99,VWS V14.01,2013-08-18 00:38:00,
2013-08-17 17:43:00,81.1,56.5,-100.00,North,-999,-999.0,-999.0,43,-99.99,,---,-99.99,VWS V14.01,2013-08-18 00:43:00,
2013-08-17 17:48:00,81.1,56.5,-100.00,North,-999,-999.0,-999.0,43,-99.99,,---,-99.99,VWS V14.01,2013-08-18 00:48:00,
2013-08-17 17:53:00,80.8,56.2,-100.00,North,-999,-999.0,-999.0,43,-99.99,,---,-99.99,VWS V14.01,2013-08-18 00:53:00,
2013-08-17 17:58:00,80.8,56.2,-100.00,North,-999,-999.0,-999.0,43,-99.99,,---,-99.99,VWS V14.01,2013-08-18 00:58:00,
2013-08-17 18:03:00,80.4,56.5,-100.00,North,-999,-999.0,-999.0,44,-99.99,,---,-99.99,VWS V14.01,2013-08-18 01:03:00,
2013-08-17 18:08:00,80.1,56.2,-100.00,North,-999,-999.0,-999.0,44,-99.99,,---,-99.99,VWS V14.01,2013-08-18 01:08:00,
2013-08-17 18:13:00,79.7,55.9,-100.00,North,-999,-999.0,-999.0,44,-99.99,,---,-99.99,VWS V14.01,2013-08-18 01:13:00,
2013-08-17 18:18:00,79.3,55.6,-100.00,North,-999,-999.0,-999.0,44,-99.99,,---,-99.99,VWS V14.01,2013-08-18 01:18:00,
2013-08-17 18:23:00,79.0,55.2,-100.00,North,-999,-999.0,-999.0,44,-99.99,,---,-99.99,VWS V14.01,2013-08-18 01:23:00,
2013-08-17 18:28:00,78.4,55.4,-100.00,North,-999,-999.0,-999.0,45,-99.99,,---,-99.99,VWS V14.01,2013-08-18 01:28:00,
2013-08-17 18:33:00,77.9,54.9,-100.00,North,-999,-999.0,-999.0,45,-99.99,,---,-99.99,VWS V14.01,2013-08-18 01:33:00,
2013-08-17 18:38:00,77.5,54.5,-100.00,North,-999,-999.0,-999.0,45,-99.99,,---,-99.99,VWS V14.01,2013-08-18 01:38:00,
2013-08-17 18:43:00,76.8,54.5,-100.00,North,-999,-999.0,-999.0,46,-99.99,,---,-99.99,VWS V14.01,2013-08-18 01:43:00,
2013-08-17 18:48:00,76.5,54.2,-100.00,North,-999,-999.0,-999.0,46,-99.99,,---,-99.99,VWS V14.01,2013-08-18 01:48:00,
2013-08-17 18:53:00,76.3,54.0,-100.00,North,-999,-999.0,-999.0,46,-99.99,,---,-99.99,VWS V14.01,2013-08-18 01:53:00,
2013-08-17 18:58:00,75.7,54.1,-100.00,North,-999,-999.0,-999.0,47,-99.99,,---,-99.99,VWS V14.01,2013-08-18 01:58:00,
2013-08-17 19:03:00,75.4,53.8,-100.00,North,-999,-999.0,-999.0,47,-99.99,,---,-99.99,VWS V14.01,2013-08-18 02:03:00,
2013-08-17 19:08:00,75.0,54.0,-100.00,North,-999,-999.0,-999.0,48,-99.99,,---,-99.99,VWS V14.01,2013-08-18 02:08:00,
2013-08-17 19:13:00,74.8,53.8,-100.00,North,-999,-999.0,-999.0,48,-99.99,,---,-99.99,VWS V14.01,2013-08-18 02:13:00,
2013-08-17 19:18:00,74.5,53.5,-100.00,North,-999,-999.0,-999.0,48,-99.99,,---,-99.99,VWS V14.01,2013-08-18 02:18:00,
2013-08-17 19:23:00,74.3,53.4,-100.00,North,-999,-999.0,-999.0,48,-99.99,,---,-99.99,VWS V14.01,2013-08-18 02:23:00,
2013-08-17 19:28:00,74.1,53.2,-100.00,North,-999,-999.0,-999.0,48,-99.99,,---,-99.99,VWS V14.01,2013-08-18 02:28:00,
2013-08-17 19:33:00,73.9,53.6,-100.00,North,-999,-999.0,-999.0,49,-99.99,,---,-99.99,VWS V14.01,2013-08-18 02:33:00,
2013-08-17 19:38:00,73.8,53.4,-100.00,North,-999,-999.0,-999.0,49,-99.99,,---,-99.99,VWS V14.01,2013-08-18 02:38:00,
2013-08-17 19:43:00,73.4,53.1,-100.00,North,-999,-999.0,-999.0,49,-99.99,,---,-99.99,VWS V14.01,2013-08-18 02:43:00,
2013-08-17 19:48:00,73.0,53.3,-100.00,North,-999,-999.0,-999.0,50,-99.99,,---,-99.99,VWS V14.01,2013-08-18 02:48:00,
2013-08-17 19:53:00,72.9,53.2,-100.00,North,-999,-999.0,-999.0,50,-99.99,,---,-99.99,VWS V14.01,2013-08-18 02:53:00,
2013-08-17 19:58:00,72.5,52.8,-100.00,North,-999,-999.0,-999.0,50,-99.99,,---,-99.99,VWS V14.01,2013-08-18 02:58:00,
2013-08-17 20:03:00,72.1,53.0,-100.00,North,-999,-999.0,-999.0,51,-99.99,,---,-99.99,VWS V14.01,2013-08-18 03:03:00,
2013-08-17 20:08:00,71.8,52.7,-100.00,North,-999,-999.0,-999.0,51,-99.99,,---,-99.99,VWS V14.01,2013-08-18 03:08:00,
2013-08-17 20:13:00,71.6,52.5,-100.00,North,-999,-999.0,-999.0,51,-99.99,,---,-99.99,VWS V14.01,2013-08-18 03:13:00,
2013-08-17 20:18:00,71.4,52.9,-100.00,North,-999,-999.0,-999.0,52,-99.99,,---,-99.99,VWS V14.01,2013-08-18 03:18:00,
2013-08-17 20:23:00,71.1,52.6,-100.00,North,-999,-999.0,-999.0,52,-99.99,,---,-99.99,VWS V14.01,2013-08-18 03:23:00,
2013-08-17 20:28:00,70.9,52.9,-100.00,North,-999,-999.0,-999.0,53,-99.99,,---,-99.99,VWS V14.01,2013-08-18 03:28:00,
2013-08-17 20:33:00,70.9,52.9,-100.00,North,-999,-999.0,-999.0,53,-99.99,,---,-99.99,VWS V14.01,2013-08-18 03:33:00,
2013-08-17 20:38:00,70.7,52.8,-100.00,North,-999,-999.0,-999.0,53,-99.99,,---,-99.99,VWS V14.01,2013-08-18 03:38:00,
2013-08-17 20:43:00,70.3,52.4,-100.00,North,-999,-999.0,-999.0,53,-99.99,,---,-99.99,VWS V14.01,2013-08-18 03:43:00,
2013-08-17 20:48:00,70.2,52.8,-100.00,North,-999,-999.0,-999.0,54,-99.99,,---,-99.99,VWS V14.01,2013-08-18 03:48:00,
2013-08-17 20:53:00,70.2,52.8,-100.00,North,-999,-999.0,-999.0,54,-99.99,,---,-99.99,VWS V14.01,2013-08-18 03:53:00,
2013-08-17 20:58:00,69.8,52.4,-100.00,North,-999,-999.0,-999.0,54,-99.99,,---,-99.99,VWS V14.01,2013-08-18 03:58:00,
2013-08-17 21:03:00,69.8,52.4,-100.00,North,-999,-999.0,-999.0,54,-99.99,,---,-99.99,VWS V14.01,2013-08-18 04:03:00,
2013-08-17 21:13:00,69.4,52.6,-100.00,North,-999,-999.0,-999.0,55,-99.99,,---,-99.99,VWS V14.01,2013-08-18 04:13:00,
2013-08-17 21:14:00,69.4,52.6,-100.00,North,-999,-999.0,-999.0,55,-99.99,,---,-99.99,VWS V14.01,2013-08-18 04:14:00,
2013-08-17 21:15:00,69.4,52.6,-100.00,North,-999,-999.0,-999.0,55,-99.99,,---,-99.99,VWS V14.01,2013-08-18 04:15:00,
2013-08-17 21:18:00,69.3,52.4,-100.00,North,-999,-999.0,-999.0,55,-99.99,,---,-99.99,VWS V14.01,2013-08-18 04:18:00,
2013-08-17 21:23:00,69.3,52.4,-100.00,North,-999,-999.0,-999.0,55,-99.99,,---,-99.99,VWS V14.01,2013-08-18 04:23:00,
2013-08-17 21:28:00,69.3,52.4,-100.00,North,-999,-999.0,-999.0,55,-99.99,,---,-99.99,VWS V14.01,2013-08-18 04:28:00,
2013-08-17 21:33:00,69.3,52.4,-100.00,North,-999,-999.0,-999.0,55,-99.99,,---,-99.99,VWS V14.01,2013-08-18 04:33:00,
2013-08-17 21:38:00,69.3,52.4,-100.00,North,-999,-999.0,-999.0,55,-99.99,,---,-99.99,VWS V14.01,2013-08-18 04:38:00,
2013-08-17 21:43:00,69.3,52.4,-100.00,North,-999,-999.0,-999.0,55,-99.99,,---,-99.99,VWS V14.01,2013-08-18 04:43:00,
2013-08-17 21:48:00,69.3,52.4,-100.00,North,-999,-999.0,-999.0,55,-99.99,,---,-99.99,VWS V14.01,2013-08-18 04:48:00,
2013-08-17 21:53:00,69.3,52.4,-100.00,North,-999,-999.0,-999.0,55,-99.99,,---,-99.99,VWS V14.01,2013-08-18 04:53:00,
2013-08-17 21:58:00,69.3,52.4,-100.00,North,-999,-999.0,-999.0,55,-99.99,,---,-99.99,VWS V14.01,2013-08-18 04:58:00,
2013-08-17 22:03:00,69.3,52.4,-100.00,North,-999,-999.0,-999.0,55,-99.99,,---,-99.99,VWS V14.01,2013-08-18 05:03:00,
2013-08-17 22:08:00,69.3,52.4,-100.00,North,-999,-999.0,-999.0,55,-99.99,,---,-99.99,VWS V14.01,2013-08-18 05:08:00,
2013-08-17 22:13:00,67.6,52.3,-100.00,North,-999,-999.0,-999.0,58,-99.99,,---,-99.99,VWS V14.01,2013-08-18 05:13:00,
2013-08-17 22:19:00,67.6,52.3,-100.00,North,-999,-999.0,-999.0,58,-99.99,,---,-99.99,VWS V14.01,2013-08-18 05:19:00,
2013-08-17 22:23:00,67.5,52.2,-100.00,North,-999,-999.0,-999.0,58,-99.99,,---,-99.99,VWS V14.01,2013-08-18 05:23:00,
2013-08-17 22:29:00,67.5,52.2,-100.00,North,-999,-999.0,-999.0,58,-99.99,,---,-99.99,VWS V14.01,2013-08-18 05:29:00,
2013-08-17 22:34:00,67.5,52.7,-100.00,North,-999,-999.0,-999.0,59,-99.99,,---,-99.99,VWS V14.01,2013-08-18 05:34:00,
2013-08-17 22:39:00,67.3,52.5,-100.00,North,-999,-999.0,-999.0,59,-99.99,,---,-99.99,VWS V14.01,2013-08-18 05:39:00,
2013-08-17 22:44:00,67.3,52.5,-100.00,North,-999,-999.0,-999.0,59,-99.99,,---,-99.99,VWS V14.01,2013-08-18 05:44:00,
2013-08-17 22:49:00,67.3,52.5,-100.00,North,-999,-999.0,-999.0,59,-99.99,,---,-99.99,VWS V14.01,2013-08-18 05:49:00,
2013-08-17 22:54:00,67.1,52.3,-100.00,North,-999,-999.0,-999.0,59,-99.99,,---,-99.99,VWS V14.01,2013-08-18 05:54:00,
2013-08-17 22:59:00,66.9,52.1,-100.00,North,-999,-999.0,-999.0,59,-99.99,,---,-99.99,VWS V14.01,2013-08-18 05:59:00,
2013-08-17 23:04:00,66.7,52.4,-100.00,North,-999,-999.0,-999.0,60,-99.99,,---,-99.99,VWS V14.01,2013-08-18 06:04:00,
2013-08-17 23:09:00,66.7,52.4,-100.00,North,-999,-999.0,-999.0,60,-99.99,,---,-99.99,VWS V14.01,2013-08-18 06:09:00,
2013-08-17 23:14:00,66.6,52.3,-100.00,North,-999,-999.0,-999.0,60,-99.99,,---,-99.99,VWS V14.01,2013-08-18 06:14:00,
2013-08-17 23:19:00,66.6,52.3,-100.00,North,-999,-999.0,-999.0,60,-99.99,,---,-99.99,VWS V14.01,2013-08-18 06:19:00,
2013-08-17 23:24:00,66.4,52.5,-100.00,North,-999,-999.0,-999.0,61,-99.99,,---,-99.99,VWS V14.01,2013-08-18 06:24:00,
2013-08-17 23:29:00,66.4,52.5,-100.00,North,-999,-999.0,-999.0,61,-99.99,,---,-99.99,VWS V14.01,2013-08-18 06:29:00,
2013-08-17 23:34:00,66.4,52.5,-100.00,North,-999,-999.0,-999.0,61,-99.99,,---,-99.99,VWS V14.01,2013-08-18 06:34:00,
2013-08-17 23:39:00,66.4,52.5,-100.00,North,-999,-999.0,-999.0,61,-99.99,,---,-99.99,VWS V14.01,2013-08-18 06:39:00,
2013-08-17 23:44:00,66.2,52.4,-100.00,North,-999,-999.0,-999.0,61,-99.99,,---,-99.99,VWS V14.01,2013-08-18 06:44:00,
2013-08-17 23:49:00,66.2,52.4,-100.00,North,-999,-999.0,-999.0,61,-99.99,,---,-99.99,VWS V14.01,2013-08-18 06:49:00,
2013-08-17 23:54:00,66.2,52.4,-100.00,North,-999,-999.0,-999.0,61,-99.99,,---,-99.99,VWS V14.01,2013-08-18 06:54:00,
2013-08-17 23:59:00,66.0,52.6,-100.00,North,-999,-999.0,-999.0,62,-99.99,,---,-99.99,VWS V14.01,2013-08-18 06:59:00,